Location: Fort Wayne
(41.1310°N, 85.1290°W)
Time: 23:09:08
(UTC-04:00)

Iridium 37 - Visible Passes

Search period start: 28 March 2015 00:00
Search period end: 07 April 2015 00:00
Orbit: 776 x 779 km, 86.4° (Epoch: 28 March)

Date Brightness Start Highest point End Pass type
(mag) Time Alt. Az. Time Alt. Az. Time Alt. Az.
28 Mar 7.7 21:47:24 10° NNW 21:51:43 26° W 21:55:57 10° SW visible
29 Mar 6.6 21:13:21 10° NNW 21:18:22 48° W 21:23:20 10° SSW visible
30 Mar 5.6 20:39:39 10° N 20:44:54 88° W 20:50:07 10° S visible
31 Mar 8.3 21:48:05 10° NW 21:51:41 19° W 21:55:06 10° WSW visible
01 Apr 7.4 21:13:42 10° NNW 21:18:23 33° W 21:22:58 10° SSW visible
02 Apr 6.2 20:39:49 10° N 20:44:58 61° W 20:50:06 10° SSW visible
03 Apr 8.7 21:49:16 10° NW 21:51:37 13° WNW 21:53:41 10° WSW visible
04 Apr 8.1 21:14:14 10° NNW 21:18:21 23° W 21:22:20 10° SW visible
05 Apr 7.0 20:40:05 10° NNW 20:45:00 42° W 20:49:52 10° SSW visible
